Weather History for St. Joseph, MO

Change the Weather History Date:

Monday, December 30, 2013

  Actual Average Record
Temperature  
Mean Temperature 18 °F 27 °F  
Max Temperature 30 °F 36 °F 70 °F (2004)
Min Temperature 6 °F 17 °F -11 °F (1961)
Degree Days  
Heating Degree Days 47 38  
Month to date heating degree days 1226 1063  
Since 1 July heating degree days 2395 2174  
Cooling Degree Days 0 0  
Month to date cooling degree days 0 0  
Year to date cooling degree days 1285 1221  
Moisture  
Dew Point 5 °F    
Average Humidity 58    
Maximum Humidity 74    
Minimum Humidity 42    
Precipitation  
Precipitation 0.00 in 0.05 in 0.74 in (1931)
Month to date precipitation 0.37 1.48  
Year to date precipitation 31.19 35.56  
Sea Level Pressure  
Sea Level Pressure 30.29 in    
Wind  
Wind Speed 8 mph (SSW)    
Max Wind Speed 17 mph    
Max Gust Speed 21 mph    
Visibility 10 miles    
Events      
T = Trace of Precipitation, MM = Missing Value Source: NWS Daily Summary

Daily Weather History Graph

Daily Weather History Graph

Search for Another Location

Airport:

Trip Planner

Search our weather history database for the weather conditions in past years. The results will help you decide how hot, cold, wet, or windy it might be!

Date:

Astronomy

Dec. 30, 2013 Rise Set
Actual Time 7:40 AM CST 5:04 PM CST
Civil Twilight 7:10 AM CST 5:34 PM CST
Nautical Twilight 6:36 AM CST 6:08 PM CST
Astronomical Twilight 6:03 AM CST 6:41 PM CST
Moon 5:31 AM CST (12/30) 3:38 PM CST (12/30)
Length of Visible Light 10h 24m
Length of Day
9h 23m
Waning Crescent, 4% of the Moon is Illuminated
Dec 30
Waning Crescent
Jan 1
New
Jan 7
First Quarter
Jan 15
Full
Jan 23
Last Quarter

Hourly Weather History & Observations

Time (CST) Temp. Windchill Dew Point Humidity Pressure Visibility Wind Dir Wind Speed Gust Speed Precip Events Conditions
12:53 AM 7.0 °F - -2.9 °F 64% 30.38 in 10.0 mi Calm Calm - N/A   Clear
1:53 AM 8.1 °F - -4.0 °F 58% 30.37 in 10.0 mi Calm Calm - N/A   Clear
2:53 AM 7.0 °F - -2.0 °F 67% 30.38 in 10.0 mi Calm Calm - N/A   Clear
3:53 AM 9.0 °F - -5.1 °F 53% 30.36 in 10.0 mi Calm Calm - N/A   Clear
4:53 AM 9.0 °F -2.2 °F -6.0 °F 51% 30.36 in 10.0 mi ESE 6.9 mph - N/A   Clear
5:53 AM 10.0 °F -0.9 °F -5.1 °F 51% 30.35 in 10.0 mi SE 6.9 mph - N/A   Clear
6:53 AM 10.0 °F 0.4 °F -5.1 °F 51% 30.34 in 10.0 mi SE 5.8 mph - N/A   Mostly Cloudy
7:53 AM 10.9 °F -0.8 °F -2.9 °F 54% 30.33 in 10.0 mi SSE 8.1 mph - N/A   Overcast
8:53 AM 12.0 °F -0.4 °F -2.0 °F 53% 30.32 in 10.0 mi South 9.2 mph - N/A   Scattered Clouds
9:53 AM 15.1 °F 1.8 °F -0.9 °F 49% 30.30 in 10.0 mi South 11.5 mph - N/A   Mostly Cloudy
10:53 AM 17.1 °F 6.6 °F 1.0 °F 50% 30.31 in 10.0 mi SSW 8.1 mph - N/A   Overcast
11:53 AM 19.0 °F 7.5 °F 1.9 °F 47% 30.27 in 10.0 mi South 10.4 mph - N/A   Overcast
12:53 PM 21.0 °F 8.1 °F 3.0 °F 46% 30.22 in 10.0 mi South 13.8 mph - N/A   Overcast
1:53 PM 25.0 °F 13.1 °F 6.1 °F 45% 30.20 in 10.0 mi SW 13.8 mph - N/A   Partly Cloudy
2:53 PM 27.0 °F 16.1 °F 7.0 °F 43% 30.20 in 10.0 mi SW 12.7 mph - N/A   Scattered Clouds
3:53 PM 28.9 °F 20.4 °F 9.0 °F 43% 30.20 in 10.0 mi SSW 9.2 mph - N/A   Overcast
4:53 PM 30.0 °F 22.4 °F 12.0 °F 47% 30.19 in 10.0 mi South 8.1 mph - N/A   Overcast
5:53 PM 27.0 °F 23.0 °F 12.0 °F 53% 30.21 in 10.0 mi South 3.5 mph - N/A   Partly Cloudy
6:53 PM 28.0 °F 19.3 °F 15.1 °F 58% 30.22 in 10.0 mi SW 9.2 mph - N/A   Partly Cloudy
7:53 PM 28.0 °F 18.1 °F 15.1 °F 58% 30.25 in 10.0 mi West 11.5 mph - N/A   Clear
8:53 PM 27.0 °F 17.3 °F 16.0 °F 63% 30.27 in 10.0 mi West 10.4 mph - N/A   Clear
9:53 PM 26.1 °F 21.9 °F 17.1 °F 69% 30.30 in 10.0 mi North 3.5 mph - N/A   Clear
10:53 PM 25.0 °F 14.8 °F 17.1 °F 72% 30.32 in 10.0 mi NNW 10.4 mph - N/A   Clear
11:53 PM 23.0 °F 12.4 °F 15.1 °F 72% 30.32 in 10.0 mi North 10.4 mph - N/A   Clear